Location: Recife
(8.0585°S, 34.8848°W)
Time: 20:58:10
(UTC-03:00)

S-56A Canister/Altair - Pass Details

Date: 19 April 2026
Orbit: 633 x 2484 km, 38.9° (Epoch: 16 May)

Event Time Altitude Azimuth Distance (km) Brightness Sun altitude
Rises 15:02:19 0° 270° (W) 5,176 12.8 31.1°
Reaches altitude 10° 15:08:00 10° 251° (WSW) 3,749 11.9 29.7°
Maximum altitude 15:12:56 15° 218° (SW) 2,952 10.9 28.6°
Drops below altitude 10° 15:17:02 10° 184° (S) 2,992 10.5 27.6°
Sets 15:20:46 0° 161° (SSE) 3,633 10.7 26.7°
